Weather History for Dubai, United Arab Emirates

Change the Weather History Date:

Friday, January 18, 2013

  Actual Average Record
Temperature  
Mean Temperature 62 °F -  
Max Temperature 71 °F 75 °F 84 °F (1999)
Min Temperature 53 °F 59 °F 51 °F (2008)
Degree Days  
Heating Degree Days 3    
Growing Degree Days 12 (Base 50)    
Moisture  
Dew Point 42 °F    
Average Humidity 43    
Maximum Humidity 60    
Minimum Humidity 22    
Precipitation  
Precipitation 0.00 in 0.03 in - ()
Sea Level Pressure  
Sea Level Pressure 30.19 in    
Wind  
Wind Speed 5 mph ()    
Max Wind Speed 12 mph    
Max Gust Speed -    
Visibility 6.0 miles    
Events      
Averages and records for this station are not official NWS values.
T = Trace of Precipitation, MM = Missing Value Source: Averaged Metar Reports

Daily Weather History Graph

Daily Weather History Graph

Search for Another Location

Airport:

Trip Planner

Search our weather history database for the weather conditions in past years. The results will help you decide how hot, cold, wet, or windy it might be!

Date:

Astronomy

Jan. 18, 2013 Rise Set
Actual Time 7:05 AM GST 5:52 PM GST
Civil Twilight 6:41 AM GST 6:17 PM GST
Nautical Twilight 6:13 AM GST 6:45 PM GST
Astronomical Twilight 5:45 AM GST 7:12 PM GST
Moon 11:19 AM GST (1/18) No Moon Set
Length of Visible Light 11h 35m
Length of Day
10h 46m
Waxing Crescent, 43% of the Moon is Illuminated
Jan 18
Waxing Crescent
Jan 19
First Quarter
Jan 27
Full
Feb 3
Last Quarter
Feb 10
New

Hourly Weather History & Observations

Time (GST) Temp. Dew Point Humidity Pressure Visibility Wind Dir Wind Speed Gust Speed Precip Events Conditions
12:00 AM 60.8 °F 35.6 °F 39% 30.21 in - Variable 3.5 mph - N/A   Clear
1:00 AM 59 °F 38 °F 34% 30.23 in 6 mi ESE 4.6 mph - -  
1:00 AM 59.0 °F 37.4 °F 45% 30.21 in - ESE 4.6 mph - N/A   Clear
2:00 AM 57.2 °F 37.4 °F 48% 30.21 in - East 4.6 mph - N/A   Clear
3:00 AM 57.2 °F 37.4 °F 48% 30.18 in - ENE 4.6 mph - N/A   Clear
4:00 AM 56 °F 36 °F 35% 30.18 in 6 mi East 5.8 mph - -  
4:00 AM 55.4 °F 35.6 °F 47% 30.18 in - East 5.8 mph - N/A   Clear
5:00 AM 55.4 °F 33.8 °F 44% 30.15 in - East 5.8 mph - N/A   Clear
6:00 AM 55.4 °F 33.8 °F 44% 30.15 in - Variable 1.2 mph - N/A   Clear
7:00 AM 53.6 °F 33.8 °F 47% 30.18 in - Variable 1.2 mph - N/A   Clear
8:00 AM 55.4 °F 33.8 °F 44% 30.21 in - East 4.6 mph - N/A   Clear
9:00 AM 59.0 °F 33.8 °F 39% 30.21 in - SE 4.6 mph - N/A   Clear
10:00 AM 65 °F 35 °F 22% 30.25 in 6 mi East 3.5 mph - -  
10:00 AM 66.2 °F 35.6 °F 32% 30.24 in - East 3.5 mph - N/A   Clear
11:00 AM 68.0 °F 35.6 °F 30% 30.24 in - NNE 5.8 mph - N/A   Clear
12:00 PM 69.8 °F 39.2 °F 33% 30.21 in - NNW 9.2 mph - N/A   Clear
1:00 PM 70 °F 40 °F 23% 30.18 in 6 mi NNW 8.1 mph - -   Clear
1:00 PM 69.8 °F 41.0 °F 35% 30.18 in - NNW 8.1 mph - N/A   Clear
2:00 PM 69.8 °F 44.6 °F 40% 30.15 in - NW 11.5 mph - N/A   Clear
3:00 PM 69.8 °F 46.4 °F 43% 30.12 in - NNW 9.2 mph - N/A   Clear
4:00 PM 69 °F 47 °F 35% 30.14 in 6 mi WNW 10.4 mph - -  
4:00 PM 69.8 °F 46.4 °F 43% 30.12 in - WNW 10.4 mph - N/A   Clear
5:00 PM 69.8 °F 46.4 °F 43% 30.12 in - WNW 8.1 mph - N/A   Clear
6:00 PM 68.0 °F 50.0 °F 52% 30.15 in - West 9.2 mph - N/A   Clear
7:00 PM 67 °F 52 °F 48% 30.18 in 6 mi West 8.1 mph - -  
7:00 PM 68.0 °F 51.8 °F 56% 30.18 in - West 8.1 mph - N/A   Clear
8:00 PM 66.2 °F 51.8 °F 60% 30.18 in - WNW 8.1 mph - N/A   Clear
9:00 PM 68.0 °F 50.0 °F 52% 30.21 in - WNW 9.2 mph - N/A   Clear
10:00 PM 67 °F 50 °F 43% 30.22 in 6 mi NW 8.1 mph - -  
10:00 PM 66.2 °F 50.0 °F 56% 30.21 in - NW 8.1 mph - N/A   Clear
11:00 PM 66.2 °F 51.8 °F 60% 30.18 in - WNW 8.1 mph - N/A   Clear